contact:dominique.lefevre@mio.osupytheas.fr, maurice.libes@osupytheas.fr, didier.mallarino@osupytheas.fr
Project:EMSO http://www.emso-fr.org/EMSO-France
Depth: 2436.0 m
Title:EMSO Ligure Ouest : Data MII capteur AQUADOPP
Date,Latitude,Longitude,X_East,Y_North,Z_Up,Amplitude_X,Amplitude_Y,Amplitude_Z,Batterie,SoundSpeed,Heading,Pitch,Roll,Pressure,TIS,Speed,Direction
, degrees North, degrees East, m.s-1, m.s-1,m.s-1, 1, 1, 1, Volt, m.s-1, degree, degree, degree, dbar, degree_C, m.s-1, degree
2024-05-07T00:04:03,42.805,6.029,0.019,-0.048,0.014,105.0,105.0,102.0,13.3,1505.2,7.0,-0.8,1.8,2471.554,13.28,0.051,158.4
2024-05-07T00:07:03,42.805,6.029,0.017,-0.03,-0.012,105.0,103.0,103.0,13.4,1505.2,4.8,-0.8,1.8,2471.511,13.28,0.034,150.5
2024-05-07T00:10:03,42.805,6.029,0.014,-0.018,0.019,103.0,106.0,103.0,13.3,1505.2,354.2,-0.8,1.8,2471.565,13.29,0.022,142.1
2024-05-07T00:13:03,42.805,6.029,0.024,-0.034,0.023,104.0,105.0,102.0,13.3,1505.2,0.5,-0.8,1.8,2471.566,13.29,0.041,144.8
2024-05-07T00:16:03,42.805,6.029,0.032,-0.056,0.016,104.0,106.0,102.0,13.4,1505.2,2.7,-0.8,1.8,2471.565,13.29,0.064,150.3
2024-05-07T00:19:03,42.805,6.029,0.047,-0.013,0.052,103.0,104.0,103.0,13.3,1505.2,0.0,-0.8,1.8,2471.522,13.29,0.048,105.5
2024-05-07T00:22:03,42.805,6.029,0.032,-0.031,-0.001,105.0,104.0,101.0,13.3,1505.2,355.9,-0.8,1.8,2471.562,13.29,0.044,134.1
2024-05-07T00:25:03,42.805,6.029,0.049,-0.045,0.006,106.0,104.0,103.0,13.3,1505.2,4.3,-0.7,1.8,2471.506,13.29,0.066,132.6
2024-05-07T00:28:03,42.805,6.029,0.027,-0.042,0.001,105.0,106.0,101.0,13.3,1505.2,358.3,-0.8,1.8,2471.533,13.29,0.049,147.3
2024-05-07T00:31:03,42.805,6.029,0.025,-0.043,-0.001,105.0,104.0,102.0,13.3,1505.2,355.2,-0.7,1.8,2471.513,13.29,0.049,149.8
2024-05-07T00:34:03,42.805,6.029,0.052,-0.047,0.021,105.0,105.0,103.0,13.4,1505.2,358.9,-0.8,1.8,2471.493,13.29,0.07,132.1
2024-05-07T00:37:03,42.805,6.029,0.03,-0.057,0.031,105.0,104.0,102.0,13.4,1505.2,6.9,-0.7,1.8,2471.508,13.29,0.064,152.2
2024-05-07T00:40:03,42.805,6.029,0.024,-0.037,0.022,105.0,105.0,102.0,13.3,1505.2,7.4,-0.8,1.7,2471.493,13.29,0.044,147.0
2024-05-07T00:43:03,42.805,6.029,0.031,-0.027,0.005,104.0,106.0,102.0,13.3,1505.2,2.7,-0.8,1.8,2471.545,13.29,0.041,131.1
2024-05-07T00:46:03,42.805,6.029,0.041,-0.034,0.022,105.0,105.0,101.0,13.4,1505.2,359.4,-0.8,1.8,2471.51,13.29,0.053,129.7
2024-05-07T00:49:03,42.805,6.029,0.05,-0.045,-0.002,105.0,105.0,102.0,13.4,1505.2,1.0,-0.8,1.8,2471.501,13.29,0.067,132.0
2024-05-07T00:52:03,42.805,6.029,0.025,-0.039,0.0,105.0,103.0,102.0,13.4,1505.2,9.6,-0.8,1.8,2471.494,13.29,0.046,147.3
2024-05-07T00:55:03,42.805,6.029,0.031,-0.05,0.013,105.0,106.0,102.0,13.4,1505.2,1.6,-0.8,1.8,2471.506,13.29,0.058,148.2
2024-05-07T00:58:03,42.805,6.029,0.041,-0.047,0.007,106.0,104.0,102.0,13.4,1505.2,5.0,-0.8,1.8,2471.517,13.29,0.062,138.9
2024-05-07T01:04:03,42.805,6.029,0.014,-0.019,0.011,105.0,106.0,103.0,13.4,1505.2,2.0,-0.7,1.8,2471.548,13.28,0.023,143.6
2024-05-07T01:07:03,42.805,6.029,0.029,-0.033,0.007,105.0,106.0,104.0,13.3,1505.2,4.8,-0.8,1.8,2471.56,13.28,0.043,138.7
2024-05-07T01:10:02,42.805,6.029,0.046,-0.04,-0.005,105.0,105.0,102.0,13.4,1505.2,5.4,-0.8,1.8,2471.523,13.29,0.06,131.0
2024-05-07T01:13:03,42.805,6.029,0.022,-0.032,0.027,105.0,104.0,102.0,13.3,1505.2,355.2,-0.8,1.8,2471.502,13.29,0.038,145.5
2024-05-07T01:16:03,42.805,6.029,0.045,-0.045,0.002,106.0,106.0,101.0,13.4,1505.2,4.5,-0.7,1.8,2471.523,13.29,0.063,135.0
2024-05-07T01:19:03,42.805,6.029,0.021,-0.033,0.0,105.0,105.0,102.0,13.4,1505.2,1.0,-0.7,1.8,2471.502,13.29,0.039,147.5
2024-05-07T01:22:03,42.805,6.029,0.019,-0.024,0.019,104.0,105.0,102.0,13.4,1505.2,0.5,-0.8,1.8,2471.542,13.29,0.03,141.6
2024-05-07T01:25:03,42.805,6.029,0.035,-0.041,-0.009,105.0,104.0,102.0,13.3,1505.2,7.5,-0.8,1.8,2471.525,13.29,0.053,139.5
2024-05-07T01:28:03,42.805,6.029,0.036,-0.026,0.04,105.0,105.0,102.0,13.3,1505.2,357.0,-0.8,1.8,2471.511,13.29,0.044,125.8
2024-05-07T01:31:03,42.805,6.029,0.018,-0.037,0.018,104.0,105.0,102.0,13.4,1505.2,4.4,-0.8,1.8,2471.495,13.29,0.041,154.1
2024-05-07T01:34:03,42.805,6.029,0.02,-0.021,-0.006,104.0,106.0,102.0,13.4,1505.2,6.1,-0.7,1.8,2471.513,13.29,0.028,136.4
2024-05-07T01:37:03,42.805,6.029,0.031,-0.02,0.006,106.0,106.0,101.0,13.3,1505.2,9.5,-0.8,1.8,2471.529,13.29,0.036,122.8
2024-05-07T01:40:03,42.805,6.029,0.036,-0.05,0.019,105.0,105.0,102.0,13.4,1505.2,358.0,-0.8,1.8,2471.507,13.29,0.061,144.2
2024-05-07T01:43:03,42.805,6.029,0.029,-0.03,0.013,106.0,103.0,103.0,13.4,1505.2,357.8,-0.7,1.8,2471.504,13.29,0.041,136.0
2024-05-07T01:46:03,42.805,6.029,0.028,-0.048,0.007,105.0,105.0,103.0,13.4,1505.2,5.7,-0.8,1.8,2471.509,13.29,0.055,149.7
2024-05-07T01:49:03,42.805,6.029,0.041,-0.044,0.013,105.0,106.0,103.0,13.3,1505.2,2.6,-0.7,1.8,2471.495,13.29,0.06,137.0
2024-05-07T01:52:03,42.805,6.029,0.012,-0.066,-0.003,106.0,103.0,103.0,13.4,1505.2,9.7,-0.7,1.8,2471.552,13.29,0.067,169.7
2024-05-07T01:55:03,42.805,6.029,0.027,-0.028,0.006,106.0,105.0,102.0,13.4,1505.2,355.3,-0.7,1.8,2471.519,13.29,0.038,136.0
2024-05-07T01:58:03,42.805,6.029,0.032,-0.049,0.008,106.0,105.0,102.0,13.4,1505.2,6.8,-0.7,1.8,2471.484,13.29,0.058,146.8
2024-05-07T02:04:03,42.805,6.029,0.029,-0.044,0.002,105.0,104.0,103.0,13.4,1505.2,6.4,-0.7,1.8,2471.517,13.28,0.052,146.6
2024-05-07T02:07:03,42.805,6.029,0.018,-0.015,0.009,106.0,106.0,102.0,13.4,1505.2,357.2,-0.7,1.8,2471.525,13.29,0.023,129.8
2024-05-07T02:10:03,42.805,6.029,0.021,-0.033,0.002,106.0,106.0,103.0,13.4,1505.2,357.8,-0.8,1.8,2471.544,13.29,0.039,147.5
2024-05-07T02:13:03,42.805,6.029,0.048,-0.018,-0.008,105.0,106.0,103.0,13.4,1505.2,1.0,-0.8,1.8,2471.511,13.29,0.051,110.6
2024-05-07T02:16:03,42.805,6.029,0.025,-0.012,0.002,105.0,104.0,101.0,13.3,1505.2,9.6,-0.7,1.8,2471.513,13.29,0.027,115.6
2024-05-07T02:19:03,42.805,6.029,0.03,-0.037,-0.02,105.0,106.0,103.0,13.3,1505.2,354.7,-0.8,1.8,2471.558,13.29,0.047,141.0
2024-05-07T02:22:03,42.805,6.029,0.041,-0.019,0.008,106.0,104.0,102.0,13.4,1505.2,2.5,-0.8,1.8,2471.534,13.29,0.045,114.9
2024-05-07T02:25:03,42.805,6.029,0.027,-0.058,-0.016,106.0,105.0,102.0,13.4,1505.2,9.8,-0.7,1.8,2471.579,13.29,0.063,155.0
2024-05-07T02:28:03,42.805,6.029,0.011,-0.032,0.015,105.0,104.0,103.0,13.4,1505.2,1.4,-0.8,1.9,2471.54,13.29,0.033,161.0
2024-05-07T02:31:03,42.805,6.029,0.039,-0.02,0.031,106.0,106.0,101.0,13.4,1505.2,0.0,-0.8,1.8,2471.527,13.29,0.043,117.1
2024-05-07T02:34:03,42.805,6.029,0.031,-0.032,0.025,106.0,106.0,103.0,13.3,1505.2,3.8,-0.7,1.8,2471.539,13.29,0.044,135.9
2024-05-07T02:37:03,42.805,6.029,0.031,-0.036,-0.003,106.0,107.0,101.0,13.4,1505.2,4.8,-0.8,1.8,2471.558,13.29,0.047,139.3
2024-05-07T02:40:03,42.805,6.029,0.028,-0.02,0.008,106.0,105.0,101.0,13.3,1505.2,354.6,-0.7,1.8,2471.548,13.29,0.034,125.5
2024-05-07T02:43:03,42.805,6.029,0.034,-0.025,0.024,106.0,105.0,102.0,13.3,1505.2,2.1,-0.8,1.8,2471.588,13.29,0.042,126.3
2024-05-07T02:46:03,42.805,6.029,0.018,-0.052,0.006,106.0,105.0,102.0,13.3,1505.2,1.5,-0.8,1.8,2471.568,13.29,0.055,160.9
2024-05-07T02:49:03,42.805,6.029,0.04,-0.033,0.025,105.0,105.0,102.0,13.3,1505.2,358.9,-0.7,1.8,2471.556,13.29,0.051,129.5
2024-05-07T02:52:03,42.805,6.029,0.061,-0.035,0.03,105.0,105.0,103.0,13.4,1505.2,1.0,-0.7,1.8,2471.574,13.29,0.07,119.8
2024-05-07T02:55:03,42.805,6.029,0.028,-0.059,-0.005,105.0,106.0,102.0,13.4,1505.2,3.3,-0.8,1.8,2471.545,13.29,0.065,154.6
2024-05-07T02:58:03,42.805,6.029,0.048,-0.033,0.023,105.0,104.0,103.0,13.4,1505.2,3.9,-0.8,1.9,2471.543,13.29,0.058,124.5
2024-05-07T04:04:03,42.805,6.029,0.025,-0.033,0.021,106.0,105.0,102.0,13.4,1505.2,5.4,-0.8,1.8,2472.132,13.28,0.041,142.8
2024-05-07T04:07:03,42.805,6.029,0.033,-0.033,0.002,106.0,105.0,102.0,13.4,1505.2,0.0,-0.8,1.8,2472.073,13.28,0.046,135.0
2024-05-07T04:10:03,42.805,6.029,0.032,-0.023,-0.012,105.0,106.0,102.0,13.4,1505.2,2.1,-0.8,1.8,2471.998,13.28,0.039,125.7
2024-05-07T04:13:03,42.805,6.029,0.027,-0.023,-0.005,105.0,106.0,102.0,13.4,1505.2,7.1,-0.7,1.8,2471.959,13.28,0.035,130.4
2024-05-07T04:16:03,42.805,6.029,0.024,-0.045,-0.019,105.0,105.0,103.0,13.4,1505.2,356.3,-0.7,1.8,2471.927,13.29,0.051,151.9
2024-05-07T04:19:03,42.805,6.029,0.016,-0.033,0.005,106.0,105.0,103.0,13.4,1505.2,6.3,-0.8,1.8,2471.889,13.29,0.036,154.1
2024-05-07T04:22:03,42.805,6.029,0.035,-0.016,-0.003,105.0,107.0,103.0,13.4,1505.2,2.9,-0.7,1.8,2471.831,13.29,0.038,114.6
2024-05-07T04:25:03,42.805,6.029,0.045,-0.029,-0.012,106.0,106.0,102.0,13.4,1505.2,10.0,-0.7,1.8,2471.808,13.29,0.053,122.8
2024-05-07T04:28:03,42.805,6.029,0.008,-0.025,0.023,106.0,106.0,103.0,13.4,1505.2,5.4,-0.7,1.8,2471.801,13.29,0.026,162.3
2024-05-07T04:31:03,42.805,6.029,0.03,-0.025,-0.005,106.0,105.0,103.0,13.4,1505.2,353.7,-0.7,1.8,2471.733,13.29,0.039,129.8
2024-05-07T04:34:03,42.805,6.029,0.022,-0.022,0.014,106.0,106.0,102.0,13.3,1505.2,0.0,-0.7,1.8,2471.741,13.29,0.031,135.0
2024-05-07T04:37:03,42.805,6.029,0.022,-0.041,-0.013,105.0,107.0,102.0,13.4,1505.2,3.7,-0.8,1.8,2471.749,13.29,0.046,151.8
2024-05-07T04:40:03,42.805,6.029,0.017,-0.042,-0.019,105.0,104.0,103.0,13.4,1505.2,6.0,-0.8,1.8,2471.729,13.29,0.045,158.0
2024-05-07T04:43:03,42.805,6.029,0.015,-0.034,-0.002,105.0,106.0,103.0,13.4,1505.2,8.7,-0.8,1.8,2471.709,13.29,0.037,156.2
2024-05-07T04:46:03,42.805,6.029,0.009,-0.04,-0.002,105.0,105.0,103.0,13.4,1505.2,9.1,-0.7,1.8,2471.724,13.29,0.041,167.3
2024-05-07T04:49:03,42.805,6.029,0.011,-0.025,0.004,105.0,105.0,103.0,13.3,1505.2,2.9,-0.7,1.8,2471.72,13.29,0.027,156.3
2024-05-07T04:52:03,42.805,6.029,0.026,-0.032,-0.013,106.0,104.0,103.0,13.3,1505.2,356.7,-0.8,1.8,2471.699,13.29,0.041,140.9
2024-05-07T04:55:03,42.805,6.029,0.02,-0.047,0.018,106.0,104.0,103.0,13.4,1505.2,6.4,-0.8,1.8,2471.659,13.29,0.051,157.0
2024-05-07T04:58:03,42.805,6.029,0.029,-0.039,0.017,106.0,105.0,103.0,13.4,1505.2,356.6,-0.8,1.8,2471.699,13.29,0.048,143.4
2024-05-07T05:04:03,42.805,6.029,0.011,-0.043,-0.012,104.0,104.0,102.0,13.4,1505.2,9.0,-0.7,1.8,2471.722,13.28,0.044,165.7
2024-05-07T05:07:03,42.805,6.029,0.015,-0.029,-0.02,104.0,105.0,101.0,13.4,1505.2,10.0,-0.8,1.8,2471.671,13.29,0.032,152.6
2024-05-07T05:10:03,42.805,6.029,0.005,-0.019,0.009,105.0,107.0,102.0,13.4,1505.2,355.4,-0.8,1.8,2471.731,13.29,0.019,165.3
2024-05-07T05:13:03,42.805,6.029,0.017,-0.027,0.003,105.0,105.0,103.0,13.3,1505.2,353.6,-0.8,1.8,2471.736,13.29,0.031,147.8
2024-05-07T05:16:03,42.805,6.029,0.025,-0.009,-0.009,106.0,106.0,101.0,13.4,1505.2,353.6,-0.7,1.8,2471.728,13.29,0.026,109.8
2024-05-07T05:19:03,42.805,6.029,0.022,-0.028,0.001,105.0,104.0,102.0,13.4,1505.2,0.4,-0.7,1.8,2471.704,13.29,0.035,141.8
2024-05-07T05:22:03,42.805,6.029,0.023,0.002,0.018,104.0,105.0,103.0,13.4,1505.2,354.9,-0.8,1.8,2471.726,13.29,0.023,85.0
2024-05-07T05:25:03,42.805,6.029,0.002,-0.022,-0.001,106.0,107.0,102.0,13.4,1505.2,2.4,-0.8,1.8,2471.673,13.29,0.022,174.8
2024-05-07T05:28:03,42.805,6.029,0.027,-0.028,0.019,106.0,106.0,102.0,13.4,1505.2,359.5,-0.8,1.8,2471.701,13.29,0.038,136.0
2024-05-07T05:31:03,42.805,6.029,0.028,-0.025,-0.009,105.0,105.0,102.0,13.3,1505.2,0.4,-0.8,1.8,2471.691,13.29,0.037,131.8
2024-05-07T05:34:03,42.805,6.029,0.03,-0.042,-0.01,106.0,104.0,103.0,13.4,1505.2,355.4,-0.7,1.8,2471.72,13.29,0.051,144.5
2024-05-07T05:37:03,42.805,6.029,0.033,-0.041,0.006,105.0,105.0,102.0,13.3,1505.2,357.5,-0.8,1.8,2471.701,13.29,0.052,141.2
2024-05-07T05:40:03,42.805,6.029,0.017,-0.006,0.031,106.0,105.0,103.0,13.4,1505.2,354.8,-0.7,1.8,2471.705,13.29,0.018,109.4
2024-05-07T05:43:03,42.805,6.029,0.034,-0.047,-0.009,106.0,104.0,102.0,13.3,1505.2,358.8,-0.8,1.8,2471.693,13.29,0.058,144.1
2024-05-07T05:46:03,42.805,6.029,0.046,-0.006,0.015,104.0,105.0,102.0,13.3,1505.2,354.9,-0.7,1.8,2471.719,13.29,0.046,97.4
2024-05-07T05:49:03,42.805,6.029,0.003,-0.05,0.041,106.0,105.0,102.0,13.4,1505.2,6.3,-0.8,1.8,2471.692,13.29,0.05,176.6
2024-05-07T05:52:03,42.805,6.029,0.023,-0.044,-0.018,106.0,106.0,102.0,13.4,1505.2,6.9,-0.7,1.8,2471.682,13.29,0.049,152.4
2024-05-07T05:55:03,42.805,6.029,0.013,-0.004,0.023,105.0,107.0,103.0,13.4,1505.2,4.9,-0.7,1.8,2471.74,13.29,0.013,107.1
2024-05-07T05:58:03,42.805,6.029,0.024,-0.048,0.034,105.0,104.0,102.0,13.3,1505.2,3.1,-0.8,1.8,2471.688,13.29,0.053,153.4
2024-05-07T06:04:03,42.805,6.029,0.029,-0.031,0.029,104.0,105.0,103.0,13.4,1505.2,7.4,-0.8,1.8,2471.72,13.28,0.042,136.9
2024-05-07T06:07:03,42.805,6.029,0.026,-0.007,0.01,105.0,106.0,102.0,13.4,1505.2,4.5,-0.7,1.8,2471.733,13.29,0.026,105.1
2024-05-07T06:10:03,42.805,6.029,0.028,-0.042,-0.007,105.0,106.0,103.0,13.3,1505.2,5.4,-0.7,1.8,2471.714,13.29,0.05,146.3
2024-05-07T06:13:03,42.805,6.029,0.026,-0.045,-0.008,104.0,106.0,104.0,13.4,1505.2,9.4,-0.8,1.8,2471.733,13.29,0.051,150.0
2024-05-07T06:16:03,42.805,6.029,0.021,-0.02,0.021,105.0,105.0,103.0,13.4,1505.2,5.2,-0.7,1.8,2471.766,13.29,0.028,133.6
2024-05-07T06:19:03,42.805,6.029,0.019,-0.034,0.029,105.0,105.0,102.0,13.4,1505.2,355.2,-0.8,1.8,2471.761,13.29,0.038,150.8
2024-05-07T06:22:03,42.805,6.029,0.027,-0.028,0.036,105.0,105.0,102.0,13.4,1505.2,1.1,-0.8,1.8,2471.724,13.29,0.038,136.0
2024-05-07T06:25:03,42.805,6.029,0.039,-0.042,0.03,105.0,105.0,103.0,13.3,1505.2,354.8,-0.7,1.8,2471.758,13.29,0.057,137.1
2024-05-07T06:28:03,42.805,6.029,0.031,-0.025,0.025,105.0,106.0,103.0,13.3,1505.2,6.5,-0.8,1.8,2471.705,13.29,0.039,128.9
2024-05-07T06:31:03,42.805,6.029,0.039,-0.036,0.02,106.0,105.0,102.0,13.4,1505.2,5.9,-0.7,1.8,2471.694,13.29,0.053,132.7
2024-05-07T06:34:03,42.805,6.029,0.017,-0.007,-0.006,105.0,104.0,103.0,13.3,1505.2,3.3,-0.7,1.8,2471.729,13.29,0.018,112.4
2024-05-07T06:37:03,42.805,6.029,0.049,-0.023,0.017,105.0,105.0,102.0,13.3,1505.2,1.6,-0.7,1.8,2471.685,13.29,0.054,115.1
2024-05-07T06:40:03,42.805,6.029,0.007,0.001,0.033,106.0,105.0,103.0,13.4,1505.2,1.6,-0.8,1.8,2471.727,13.29,0.007,81.9
2024-05-07T06:43:03,42.805,6.029,0.026,-0.024,-0.003,106.0,106.0,102.0,13.3,1505.2,355.7,-0.8,1.8,2471.73,13.29,0.035,132.7
2024-05-07T06:46:03,42.805,6.029,0.042,-0.017,0.044,106.0,105.0,103.0,13.4,1505.2,357.4,-0.8,1.8,2471.719,13.29,0.045,112.0
2024-05-07T06:49:03,42.805,6.029,0.04,-0.049,0.013,105.0,106.0,102.0,13.4,1505.2,3.0,-0.8,1.8,2471.668,13.29,0.063,140.8
2024-05-07T06:52:03,42.805,6.029,0.03,-0.004,0.035,106.0,107.0,102.0,13.4,1505.2,0.4,-0.8,1.8,2471.716,13.29,0.03,97.6
2024-05-07T06:55:03,42.805,6.029,0.042,-0.022,0.039,104.0,106.0,103.0,13.3,1505.2,2.5,-0.7,1.8,2471.723,13.29,0.047,117.6
2024-05-07T06:58:03,42.805,6.029,0.008,-0.013,0.025,105.0,106.0,104.0,13.4,1505.2,0.0,-0.7,1.8,2471.738,13.29,0.015,148.4
2024-05-07T07:04:03,42.805,6.029,0.015,-0.02,0.036,105.0,105.0,102.0,13.4,1505.2,357.2,-0.7,1.8,2471.743,13.28,0.025,143.1
2024-05-07T07:07:03,42.805,6.029,0.014,-0.017,0.011,105.0,106.0,103.0,13.4,1505.2,354.9,-0.8,1.8,2471.719,13.29,0.022,140.5
2024-05-07T07:10:03,42.805,6.029,0.017,-0.01,0.023,106.0,106.0,103.0,13.4,1505.2,2.0,-0.8,1.8,2471.718,13.29,0.019,120.5
2024-05-07T07:13:03,42.805,6.029,0.034,-0.027,0.03,105.0,105.0,103.0,13.4,1505.2,3.7,-0.8,1.8,2471.717,13.29,0.043,128.5
2024-05-07T07:16:03,42.805,6.029,0.016,-0.022,0.011,105.0,106.0,102.0,13.4,1505.2,3.8,-0.7,1.8,2471.707,13.29,0.027,144.0
2024-05-07T07:19:03,42.805,6.029,0.032,-0.02,0.005,104.0,107.0,104.0,13.3,1505.2,5.8,-0.7,1.8,2471.722,13.29,0.037,122.0
2024-05-07T07:22:03,42.805,6.029,0.016,-0.028,-0.003,104.0,105.0,103.0,13.4,1505.2,5.3,-0.8,1.8,2471.694,13.29,0.032,150.3
2024-05-07T07:25:03,42.805,6.029,0.026,-0.008,0.023,105.0,105.0,103.0,13.3,1505.2,4.1,-0.8,1.8,2471.712,13.29,0.027,107.1
2024-05-07T07:28:03,42.805,6.029,0.015,-0.03,0.021,105.0,105.0,102.0,13.4,1505.2,7.2,-0.8,1.8,2471.719,13.29,0.033,153.4
2024-05-07T07:31:03,42.805,6.029,0.023,-0.027,0.015,106.0,104.0,102.0,13.4,1505.2,5.6,-0.7,1.8,2471.683,13.29,0.035,139.6
2024-05-07T07:34:03,42.805,6.029,0.013,-0.034,0.003,105.0,106.0,102.0,13.4,1505.2,5.4,-0.7,1.8,2471.664,13.29,0.036,159.1
2024-05-07T07:37:03,42.805,6.029,0.008,-0.047,-0.009,104.0,107.0,102.0,13.4,1505.2,9.6,-0.7,1.8,2471.731,13.29,0.047,170.3
2024-05-07T07:40:03,42.805,6.029,0.031,-0.005,0.029,107.0,106.0,103.0,13.3,1505.2,2.1,-0.7,1.8,2471.704,13.29,0.031,99.2
2024-05-07T07:43:03,42.805,6.029,0.029,-0.034,0.006,106.0,105.0,102.0,13.4,1505.2,6.3,-0.7,1.8,2471.695,13.29,0.044,139.5
2024-05-07T07:46:03,42.805,6.029,0.023,-0.042,0.009,105.0,105.0,102.0,13.4,1505.2,9.3,-0.7,1.9,2471.726,13.29,0.047,151.3
2024-05-07T07:49:03,42.805,6.029,0.02,-0.026,0.042,105.0,106.0,101.0,13.4,1505.2,356.5,-0.8,1.8,2471.695,13.29,0.032,142.4
2024-05-07T07:52:03,42.805,6.029,0.025,-0.024,0.039,105.0,105.0,103.0,13.4,1505.2,7.0,-0.7,1.8,2471.663,13.29,0.034,133.8
2024-05-07T07:55:03,42.805,6.029,0.012,-0.048,-0.021,105.0,108.0,102.0,13.3,1505.2,7.1,-0.7,1.8,2471.673,13.29,0.049,166.0
2024-05-07T07:58:03,42.805,6.029,0.028,-0.008,-0.008,106.0,106.0,103.0,13.3,1505.2,9.0,-0.7,1.8,2471.657,13.29,0.029,105.9
2024-05-07T08:04:03,42.805,6.029,0.033,0.0,0.018,107.0,105.0,103.0,13.3,1505.2,354.9,-0.8,1.8,2471.726,13.28,0.033,90.0
2024-05-07T08:07:03,42.805,6.029,0.031,-0.028,0.026,106.0,105.0,103.0,13.3,1505.2,3.8,-0.8,1.8,2471.706,13.29,0.041,132.1
2024-05-07T08:10:03,42.805,6.029,0.016,-0.022,0.019,105.0,105.0,103.0,13.3,1505.2,3.8,-0.8,1.8,2471.674,13.29,0.027,144.0
2024-05-07T08:13:03,42.805,6.029,0.027,-0.041,0.005,105.0,105.0,102.0,13.4,1505.2,9.5,-0.7,1.8,2471.669,13.29,0.049,146.6
2024-05-07T08:16:03,42.805,6.029,0.021,-0.049,0.025,105.0,105.0,102.0,13.4,1505.2,10.4,-0.8,1.8,2471.722,13.29,0.053,156.8
2024-05-07T08:19:03,42.805,6.029,0.038,-0.014,0.028,104.0,107.0,102.0,13.3,1505.2,5.4,-0.8,1.8,2471.67,13.29,0.04,110.2
2024-05-07T08:22:03,42.805,6.029,0.018,-0.012,0.0,105.0,106.0,102.0,13.4,1505.2,357.4,-0.7,1.8,2471.661,13.29,0.021,123.7
2024-05-07T08:25:03,42.805,6.029,0.034,-0.028,0.004,104.0,105.0,103.0,13.4,1505.2,5.3,-0.8,1.8,2471.674,13.29,0.044,129.5
2024-05-07T08:28:03,42.805,6.029,0.038,-0.024,0.009,107.0,104.0,104.0,13.4,1505.2,4.6,-0.7,1.8,2471.613,13.29,0.044,122.3
2024-05-07T08:31:03,42.805,6.029,0.019,-0.022,0.017,106.0,106.0,102.0,13.4,1505.2,1.6,-0.8,1.8,2471.654,13.29,0.029,139.2
2024-05-07T08:34:03,42.805,6.029,0.01,-0.036,0.028,106.0,106.0,103.0,13.4,1505.2,9.5,-0.8,1.8,2471.678,13.29,0.037,164.5
2024-05-07T08:37:03,42.805,6.029,0.02,-0.034,-0.006,105.0,107.0,103.0,13.3,1505.2,7.1,-0.8,1.8,2471.625,13.29,0.039,149.5
2024-05-07T08:40:03,42.805,6.029,0.029,-0.039,0.021,106.0,107.0,103.0,13.4,1505.2,7.9,-0.7,1.8,2471.671,13.29,0.048,143.4
2024-05-07T08:43:03,42.805,6.029,0.027,-0.002,0.029,107.0,107.0,102.0,13.3,1505.2,353.7,-0.7,1.8,2471.627,13.29,0.027,94.2
2024-05-07T08:46:03,42.805,6.029,0.023,-0.031,0.018,106.0,105.0,103.0,13.4,1505.2,5.8,-0.7,1.8,2471.612,13.29,0.038,143.4
2024-05-07T08:49:03,42.805,6.029,0.047,-0.036,0.038,106.0,104.0,103.0,13.4,1505.2,358.5,-0.8,1.8,2471.627,13.29,0.059,127.5
2024-05-07T08:52:03,42.805,6.029,0.024,-0.026,0.008,105.0,106.0,103.0,13.3,1505.2,5.9,-0.8,1.8,2471.639,13.29,0.035,137.3
2024-05-07T08:55:03,42.805,6.029,0.031,-0.039,-0.016,105.0,106.0,103.0,13.4,1505.2,2.1,-0.7,1.8,2471.612,13.29,0.049,141.5
2024-05-07T08:58:03,42.805,6.029,0.007,-0.038,-0.001,105.0,107.0,103.0,13.4,1505.2,10.3,-0.8,1.8,2471.6,13.29,0.038,169.6
2024-05-07T09:04:03,42.805,6.029,0.015,-0.018,0.005,105.0,107.0,103.0,13.3,1505.2,358.9,-0.8,1.8,2471.66,13.28,0.023,140.2
2024-05-07T09:07:03,42.805,6.029,0.015,-0.005,0.012,105.0,106.0,103.0,13.3,1505.2,9.4,-0.8,1.8,2471.641,13.29,0.015,108.4
2024-05-07T09:10:03,42.805,6.029,0.033,-0.036,0.0,106.0,105.0,103.0,13.3,1505.2,9.3,-0.7,1.8,2471.619,13.29,0.048,137.5
2024-05-07T09:13:03,42.805,6.029,0.026,-0.021,-0.022,105.0,106.0,103.0,13.4,1505.2,357.5,-0.8,1.8,2471.622,13.29,0.033,128.9
2024-05-07T09:16:03,42.805,6.029,0.032,-0.02,0.004,106.0,105.0,102.0,13.4,1505.2,2.0,-0.8,1.8,2471.675,13.29,0.037,122.0
2024-05-07T09:19:03,42.805,6.029,0.019,-0.024,0.009,105.0,106.0,102.0,13.4,1505.2,10.7,-0.7,1.8,2471.632,13.29,0.03,141.6
2024-05-07T09:22:03,42.805,6.029,0.035,-0.026,0.013,105.0,107.0,103.0,13.4,1505.2,358.3,-0.8,1.8,2471.591,13.29,0.043,126.6
2024-05-07T09:25:03,42.805,6.029,0.031,-0.011,0.033,105.0,107.0,103.0,13.3,1505.2,7.4,-0.8,1.8,2471.608,13.29,0.032,109.5
2024-05-07T09:28:03,42.805,6.029,0.041,-0.019,-0.007,105.0,106.0,104.0,13.3,1505.2,355.3,-0.7,1.8,2471.619,13.29,0.045,114.9
2024-05-07T09:31:03,42.805,6.029,0.043,-0.023,0.019,106.0,106.0,104.0,13.4,1505.2,3.3,-0.8,1.8,2471.582,13.29,0.048,118.1
2024-05-07T09:34:03,42.805,6.029,0.025,-0.019,-0.002,107.0,105.0,101.0,13.4,1505.2,5.9,-0.8,1.8,2471.604,13.29,0.031,127.2
2024-05-07T09:37:03,42.805,6.029,0.019,-0.005,0.005,106.0,107.0,103.0,13.4,1505.2,359.4,-0.7,1.8,2471.573,13.29,0.019,104.7
2024-05-07T09:40:03,42.805,6.029,0.04,-0.016,0.02,104.0,107.0,103.0,13.3,1505.2,10.0,-0.7,1.8,2471.547,13.29,0.043,111.8
2024-05-07T09:43:03,42.805,6.029,0.035,-0.01,-0.007,105.0,106.0,104.0,13.3,1505.2,355.4,-0.7,1.8,2471.588,13.29,0.036,105.9
2024-05-07T09:46:03,42.805,6.029,0.023,-0.031,0.01,106.0,107.0,103.0,13.4,1505.2,6.2,-0.8,1.8,2471.569,13.29,0.038,143.4
2024-05-07T09:49:03,42.805,6.029,0.027,-0.01,0.008,106.0,106.0,103.0,13.4,1505.2,1.0,-0.8,1.8,2471.574,13.29,0.028,110.3
2024-05-07T09:52:03,42.805,6.029,0.023,-0.043,0.009,106.0,106.0,104.0,13.4,1505.2,7.4,-0.8,1.8,2471.561,13.29,0.048,151.9
2024-05-07T09:55:03,42.805,6.029,0.028,-0.02,-0.017,105.0,106.0,102.0,13.3,1505.2,356.2,-0.8,1.8,2471.577,13.29,0.034,125.5
2024-05-07T09:58:03,42.805,6.029,0.03,-0.024,0.013,106.0,106.0,102.0,13.4,1505.2,5.2,-0.7,1.8,2471.552,13.29,0.038,128.7
2024-05-07T10:04:03,42.805,6.029,0.02,-0.027,0.003,106.0,107.0,102.0,13.4,1505.2,0.9,-0.8,1.8,2471.563,13.28,0.033,143.5
2024-05-07T10:07:03,42.805,6.029,0.017,-0.033,-0.023,106.0,105.0,103.0,13.4,1505.2,6.7,-0.8,1.8,2471.609,13.29,0.037,152.7
2024-05-07T10:10:03,42.805,6.029,0.031,-0.024,0.046,105.0,106.0,103.0,13.3,1505.2,8.2,-0.8,1.8,2471.57,13.29,0.039,127.7
2024-05-07T10:13:03,42.805,6.029,0.028,-0.027,0.01,106.0,106.0,102.0,13.3,1505.2,357.8,-0.8,1.8,2471.564,13.29,0.038,134.0
2024-05-07T10:16:03,42.805,6.029,0.019,-0.018,-0.006,105.0,106.0,103.0,13.4,1505.2,359.4,-0.8,1.8,2471.552,13.29,0.026,133.5
2024-05-07T10:19:03,42.805,6.029,0.047,-0.033,0.03,105.0,106.0,102.0,13.4,1505.2,355.4,-0.8,1.9,2471.571,13.29,0.057,125.1
2024-05-07T10:22:03,42.805,6.029,0.029,-0.024,-0.002,105.0,105.0,104.0,13.4,1505.2,358.4,-0.7,1.8,2471.547,13.29,0.037,129.6
2024-05-07T10:25:03,42.805,6.029,0.024,-0.029,0.004,105.0,108.0,102.0,13.4,1505.2,3.7,-0.7,1.8,2471.573,13.29,0.037,140.4
2024-05-07T10:28:03,42.805,6.029,0.059,-0.007,0.001,106.0,106.0,101.0,13.4,1505.2,0.4,-0.8,1.8,2471.522,13.29,0.059,96.8
2024-05-07T10:31:03,42.805,6.029,0.031,-0.026,0.0,106.0,105.0,103.0,13.4,1505.2,5.2,-0.7,1.8,2471.534,13.29,0.04,130.0
2024-05-07T10:34:03,42.805,6.029,0.006,-0.024,-0.002,105.0,107.0,103.0,13.3,1505.2,7.5,-0.8,1.8,2471.554,13.29,0.024,166.0
2024-05-07T10:37:03,42.805,6.029,0.019,-0.041,0.02,106.0,106.0,104.0,13.4,1505.2,9.7,-0.7,1.8,2471.525,13.29,0.045,155.1
2024-05-07T10:40:03,42.805,6.029,0.021,0.0,0.0,106.0,106.0,102.0,13.3,1505.2,354.8,-0.8,1.8,2471.551,13.29,0.021,90.0
2024-05-07T10:43:03,42.805,6.029,0.033,-0.023,0.02,105.0,107.0,102.0,13.4,1505.2,0.5,-0.7,1.8,2471.546,13.29,0.04,124.9
2024-05-07T10:46:03,42.805,6.029,0.031,-0.016,0.018,105.0,105.0,103.0,13.3,1505.2,8.2,-0.8,1.8,2471.493,13.29,0.034,117.3
2024-05-07T10:49:03,42.805,6.029,0.034,-0.013,-0.006,105.0,105.0,103.0,13.4,1505.2,355.4,-0.8,1.8,2471.531,13.29,0.036,110.9
2024-05-07T10:52:03,42.805,6.029,0.033,-0.017,0.026,105.0,104.0,103.0,13.3,1505.2,2.5,-0.8,1.8,2471.5,13.29,0.037,117.3
2024-05-07T10:55:03,42.805,6.029,0.028,-0.014,0.031,104.0,105.0,102.0,13.3,1505.2,2.9,-0.7,1.8,2471.501,13.29,0.031,116.6
2024-05-07T10:58:03,42.805,6.029,0.027,-0.024,0.007,105.0,105.0,102.0,13.4,1505.2,354.7,-0.8,1.8,2471.522,13.29,0.036,131.6
2024-05-07T11:04:03,42.805,6.029,0.034,-0.031,0.007,105.0,105.0,102.0,13.4,1505.2,8.1,-0.7,1.8,2471.579,13.28,0.046,132.4
2024-05-07T11:07:03,42.805,6.029,0.04,-0.005,0.029,106.0,106.0,103.0,13.3,1505.2,357.8,-0.7,1.8,2471.518,13.28,0.04,97.1